Time,TemperatureF,DewpointF,PressureIn,WindDirection,WindDirectionDegrees,WindSpeedMPH,WindSpeedGustMPH,Humidity,HourlyPrecipIn,Conditions,Clouds,dailyrainin,SoftwareType,DateUTC
2013-03-24 00:02:00,51.4,50.9,29.71,WNW,286,2.0,4.0,98,0.00,,,0.00,meteohub,2013-03-24 05:02:00,
2013-03-24 00:07:00,51.4,50.9,29.70,NW,314,3.0,6.0,98,0.00,,,0.00,meteohub,2013-03-24 05:07:00,
2013-03-24 00:17:00,51.4,50.9,29.77,North,355,3.0,6.0,98,0.00,,,0.00,meteohub,2013-03-24 05:17:00,
2013-03-24 00:22:00,51.4,50.9,29.74,NW,315,3.0,14.0,98,0.00,,,0.00,meteohub,2013-03-24 05:22:00,
2013-03-24 00:27:00,51.3,50.7,29.79,West,281,10.0,14.0,98,0.00,,,0.00,meteohub,2013-03-24 05:27:00,
2013-03-24 00:32:00,51.1,50.5,29.77,WNW,300,7.0,15.0,98,0.00,,,0.00,meteohub,2013-03-24 05:32:00,
2013-03-24 00:42:00,50.5,49.6,29.80,WNW,287,6.0,15.0,97,0.00,,,0.00,meteohub,2013-03-24 05:42:00,
2013-03-24 00:52:00,50.4,49.8,29.78,NW,305,9.0,14.0,98,0.00,,,0.00,meteohub,2013-03-24 05:52:00,
2013-03-24 00:57:00,50.4,49.8,29.79,WNW,295,7.0,14.0,98,0.00,,,0.00,meteohub,2013-03-24 05:57:00,
2013-03-24 01:02:00,50.4,49.8,29.79,West,281,8.0,11.0,98,0.00,,,0.00,meteohub,2013-03-24 06:02:00,
2013-03-24 01:07:00,50.4,49.8,29.79,West,261,2.0,11.0,98,0.00,,,0.00,meteohub,2013-03-24 06:07:00,
2013-03-24 01:12:00,50.4,49.5,29.78,NNW,327,2.0,11.0,97,0.00,,,0.00,meteohub,2013-03-24 06:12:00,
2013-03-24 01:22:00,50.4,49.5,29.80,NW,314,1.0,11.0,97,0.00,,,0.00,meteohub,2013-03-24 06:22:00,
2013-03-24 01:27:00,50.2,49.3,29.80,NNW,336,1.0,7.0,97,0.00,,,0.00,meteohub,2013-03-24 06:27:00,
2013-03-24 01:32:00,50.2,49.3,29.80,WNW,298,4.0,9.0,97,0.00,,,0.00,meteohub,2013-03-24 06:32:00,
2013-03-24 01:37:00,50.2,49.3,29.81,NW,316,4.0,9.0,97,0.00,,,0.00,meteohub,2013-03-24 06:37:00,
2013-03-24 01:42:00,50.2,49.3,29.81,West,263,6.0,11.0,97,0.00,,,0.00,meteohub,2013-03-24 06:42:00,
2013-03-24 01:47:00,50.2,49.3,29.80,NNW,329,4.0,11.0,97,0.00,,,0.00,meteohub,2013-03-24 06:47:00,
2013-03-24 01:52:00,50.0,48.9,29.80,NW,317,3.0,11.0,96,0.00,,,0.00,meteohub,2013-03-24 06:52:00,
2013-03-24 01:57:00,49.8,48.4,29.80,NW,313,6.0,11.0,95,0.01,,,0.01,meteohub,2013-03-24 06:57:00,
2013-03-24 02:02:00,49.8,48.4,29.81,NW,319,5.0,11.0,95,0.01,,,0.01,meteohub,2013-03-24 07:02:00,
2013-03-24 02:07:00,49.6,48.0,29.82,West,263,3.0,15.0,94,0.01,,,0.01,meteohub,2013-03-24 07:07:00,
2013-03-24 02:12:00,49.6,47.5,29.82,West,281,8.0,15.0,92,0.01,,,0.01,meteohub,2013-03-24 07:12:00,
2013-03-24 02:17:00,49.5,46.9,29.82,NW,321,11.0,15.0,91,0.01,,,0.01,meteohub,2013-03-24 07:17:00,
2013-03-24 02:22:00,49.3,46.8,29.83,NW,314,10.0,14.0,91,0.01,,,0.01,meteohub,2013-03-24 07:22:00,
2013-03-24 02:27:00,49.3,46.8,29.83,NW,305,7.0,14.0,91,0.01,,,0.01,meteohub,2013-03-24 07:27:00,
2013-03-24 02:37:00,48.9,46.4,29.84,WNW,297,6.0,12.0,91,0.01,,,0.01,meteohub,2013-03-24 07:37:00,
2013-03-24 02:42:00,48.9,46.4,29.83,WNW,303,3.0,11.0,91,0.01,,,0.01,meteohub,2013-03-24 07:42:00,
2013-03-24 02:47:00,48.7,46.6,29.83,NW,313,7.0,10.0,92,0.01,,,0.01,meteohub,2013-03-24 07:47:00,
2013-03-24 02:52:00,48.7,46.2,29.82,West,281,5.0,8.0,91,0.00,,,0.01,meteohub,2013-03-24 07:52:00,
2013-03-24 02:57:00,48.7,46.2,29.81,NW,312,2.0,8.0,91,0.00,,,0.01,meteohub,2013-03-24 07:57:00,
2013-03-24 03:02:00,48.6,46.0,29.81,NNW,344,4.0,7.0,91,0.00,,,0.01,meteohub,2013-03-24 08:02:00,
2013-03-24 03:07:00,48.6,46.0,29.80,NW,319,4.0,6.0,91,0.00,,,0.01,meteohub,2013-03-24 08:07:00,
2013-03-24 03:12:00,48.6,46.0,29.80,NW,311,3.0,6.0,91,0.00,,,0.01,meteohub,2013-03-24 08:12:00,
2013-03-24 03:17:00,48.6,46.0,29.81,NW,320,4.0,6.0,91,0.00,,,0.01,meteohub,2013-03-24 08:17:00,
2013-03-24 03:22:00,48.4,45.9,29.82,NW,317,3.0,7.0,91,0.00,,,0.01,meteohub,2013-03-24 08:22:00,
2013-03-24 03:27:00,48.4,45.9,29.82,WNW,296,7.0,7.0,91,0.00,,,0.01,meteohub,2013-03-24 08:27:00,
2013-03-24 03:32:00,48.4,45.5,29.83,NNW,330,4.0,7.0,90,0.00,,,0.01,meteohub,2013-03-24 08:32:00,
2013-03-24 03:37:00,48.4,45.3,29.83,WNW,295,5.0,10.0,89,0.00,,,0.01,meteohub,2013-03-24 08:37:00,
2013-03-24 03:42:00,48.0,45.0,29.83,West,280,5.0,11.0,89,0.00,,,0.01,meteohub,2013-03-24 08:42:00,
2013-03-24 03:47:00,48.0,45.0,29.83,WNW,303,5.0,11.0,89,0.00,,,0.01,meteohub,2013-03-24 08:47:00,
2013-03-24 03:52:00,47.8,44.8,29.83,West,279,5.0,11.0,89,0.00,,,0.01,meteohub,2013-03-24 08:52:00,
2013-03-24 03:57:00,47.7,44.2,29.84,WNW,298,9.0,11.0,88,0.00,,,0.01,meteohub,2013-03-24 08:57:00,
2013-03-24 04:02:00,47.5,43.9,29.84,WNW,296,3.0,12.0,87,0.00,,,0.01,meteohub,2013-03-24 09:02:00,
2013-03-24 04:07:00,47.1,43.7,29.84,NNW,330,4.0,12.0,88,0.00,,,0.01,meteohub,2013-03-24 09:07:00,
2013-03-24 04:12:00,46.9,43.9,29.85,West,279,9.0,12.0,89,0.00,,,0.01,meteohub,2013-03-24 09:12:00,
2013-03-24 04:17:00,46.9,43.9,29.85,NW,311,3.0,11.0,89,0.00,,,0.01,meteohub,2013-03-24 09:17:00,
2013-03-24 04:22:00,46.8,43.7,29.85,NW,319,6.0,11.0,89,0.00,,,0.01,meteohub,2013-03-24 09:22:00,
2013-03-24 04:27:00,46.8,43.7,29.85,NW,320,8.0,11.0,89,0.00,,,0.01,meteohub,2013-03-24 09:27:00,
2013-03-24 04:37:00,46.6,43.5,29.86,WNW,288,7.0,13.0,89,0.00,,,0.01,meteohub,2013-03-24 09:37:00,
2013-03-24 04:42:00,46.6,43.5,29.86,WNW,292,2.0,13.0,89,0.00,,,0.01,meteohub,2013-03-24 09:42:00,
2013-03-24 04:47:00,46.6,43.2,29.87,NNW,338,5.0,12.0,88,0.00,,,0.01,meteohub,2013-03-24 09:47:00,
2013-03-24 04:52:00,46.4,42.8,29.87,West,280,7.0,15.0,87,0.00,,,0.01,meteohub,2013-03-24 09:52:00,
2013-03-24 04:57:00,46.0,42.4,29.88,NW,312,5.0,15.0,87,0.00,,,0.01,meteohub,2013-03-24 09:57:00,
2013-03-24 05:02:00,45.7,42.1,29.88,NW,323,8.0,16.0,87,0.00,,,0.01,meteohub,2013-03-24 10:02:00,
2013-03-24 05:07:00,45.3,41.7,29.88,WNW,300,14.0,16.0,87,0.00,,,0.01,meteohub,2013-03-24 10:07:00,
2013-03-24 05:12:00,45.0,41.0,29.88,WNW,283,6.0,16.0,86,0.00,,,0.01,meteohub,2013-03-24 10:12:00,
2013-03-24 05:17:00,44.6,40.6,29.88,West,270,8.0,15.0,86,0.00,,,0.01,meteohub,2013-03-24 10:17:00,
2013-03-24 05:22:00,44.4,40.5,29.88,WNW,301,6.0,15.0,86,0.00,,,0.01,meteohub,2013-03-24 10:22:00,
2013-03-24 05:27:00,44.2,40.1,29.88,WNW,301,7.0,15.0,85,0.00,,,0.01,meteohub,2013-03-24 10:27:00,
2013-03-24 05:32:00,44.1,39.9,29.89,NW,320,6.0,11.0,85,0.00,,,0.01,meteohub,2013-03-24 10:32:00,
2013-03-24 05:37:00,43.9,39.7,29.89,WNW,286,5.0,13.0,85,0.00,,,0.01,meteohub,2013-03-24 10:37:00,
2013-03-24 05:47:00,43.5,39.4,29.90,West,268,3.0,13.0,85,0.00,,,0.01,meteohub,2013-03-24 10:47:00,
2013-03-24 05:52:00,43.5,39.4,29.89,NNW,329,4.0,13.0,85,0.00,,,0.01,meteohub,2013-03-24 10:52:00,
2013-03-24 06:02:00,43.3,38.8,29.91,NNW,341,3.0,17.0,84,0.00,,,0.01,meteohub,2013-03-24 11:02:00,
2013-03-24 06:07:00,43.2,38.7,29.91,NW,323,4.0,17.0,84,0.00,,,0.01,meteohub,2013-03-24 11:07:00,
2013-03-24 06:12:00,43.2,38.7,29.92,WNW,286,7.0,13.0,84,0.00,,,0.01,meteohub,2013-03-24 11:12:00,
2013-03-24 06:17:00,43.0,38.1,29.92,NW,316,6.0,14.0,83,0.00,,,0.01,meteohub,2013-03-24 11:17:00,
2013-03-24 06:22:00,43.0,38.1,29.92,WNW,300,5.0,14.0,83,0.00,,,0.01,meteohub,2013-03-24 11:22:00,
2013-03-24 06:27:00,42.6,37.8,29.92,West,276,3.0,14.0,83,0.00,,,0.01,meteohub,2013-03-24 11:27:00,
2013-03-24 06:32:00,42.6,37.6,29.93,WNW,283,9.0,16.0,82,0.00,,,0.01,meteohub,2013-03-24 11:32:00,
2013-03-24 06:37:00,42.4,37.4,29.94,WSW,253,13.0,16.0,82,0.00,,,0.01,meteohub,2013-03-24 11:37:00,
2013-03-24 06:42:00,42.4,37.4,29.94,NW,304,5.0,16.0,82,0.00,,,0.01,meteohub,2013-03-24 11:42:00,
2013-03-24 06:52:00,42.3,36.9,29.94,WNW,286,8.0,13.0,81,0.00,,,0.01,meteohub,2013-03-24 11:52:00,
2013-03-24 06:57:00,42.3,36.9,29.94,West,259,4.0,11.0,81,0.00,,,0.01,meteohub,2013-03-24 11:57:00,
2013-03-24 07:02:00,42.3,36.5,29.94,West,281,6.0,14.0,80,0.00,,,0.01,meteohub,2013-03-24 12:02:00,
2013-03-24 07:07:00,42.1,36.7,29.94,NW,315,4.0,14.0,81,0.00,,,0.01,meteohub,2013-03-24 12:07:00,
2013-03-24 07:12:00,42.1,36.7,29.95,WNW,301,2.0,14.0,81,0.00,,,0.01,meteohub,2013-03-24 12:12:00,
2013-03-24 07:17:00,42.1,36.7,29.95,NW,320,3.0,13.0,81,0.00,,,0.01,meteohub,2013-03-24 12:17:00,
2013-03-24 07:22:00,41.9,36.1,29.95,West,265,5.0,13.0,80,0.00,,,0.01,meteohub,2013-03-24 12:22:00,
2013-03-24 07:27:00,41.9,36.1,29.96,NNW,332,5.0,13.0,80,0.00,,,0.01,meteohub,2013-03-24 12:27:00,
2013-03-24 07:32:00,41.7,35.8,29.96,NW,319,4.0,12.0,79,0.00,,,0.01,meteohub,2013-03-24 12:32:00,
2013-03-24 07:37:00,41.5,34.2,29.96,NNW,332,6.0,12.0,75,0.00,,,0.01,meteohub,2013-03-24 12:37:00,
2013-03-24 07:42:00,41.2,33.8,29.96,WSW,239,6.0,11.0,75,0.00,,,0.01,meteohub,2013-03-24 12:42:00,
2013-03-24 07:47:00,41.2,34.2,29.97,NW,309,11.0,11.0,76,0.00,,,0.01,meteohub,2013-03-24 12:47:00,
2013-03-24 07:57:00,41.2,33.4,29.97,WNW,289,7.0,14.0,74,0.00,,,0.01,meteohub,2013-03-24 12:57:00,
2013-03-24 08:02:00,41.0,33.4,29.98,NW,325,4.0,20.0,74,0.00,,,0.01,meteohub,2013-03-24 13:02:00,
2013-03-24 08:12:00,40.8,33.4,29.98,West,277,3.0,20.0,75,0.00,,,0.01,meteohub,2013-03-24 13:12:00,
2013-03-24 08:22:00,41.0,33.6,29.99,WSW,250,10.0,14.0,75,0.00,,,0.01,meteohub,2013-03-24 13:22:00,
2013-03-24 08:27:00,41.0,33.6,29.99,NW,313,3.0,14.0,75,0.00,,,0.01,meteohub,2013-03-24 13:27:00,
2013-03-24 08:32:00,41.2,33.4,29.99,SW,231,13.0,13.0,74,0.00,,,0.01,meteohub,2013-03-24 13:32:00,
2013-03-24 08:42:00,41.5,32.5,29.99,NW,321,5.0,16.0,70,0.00,,,0.01,meteohub,2013-03-24 13:42:00,
2013-03-24 08:47:00,42.3,33.3,30.00,West,267,7.0,16.0,70,0.00,,,0.01,meteohub,2013-03-24 13:47:00,
2013-03-24 08:57:00,42.8,32.5,30.01,West,268,11.0,23.0,67,0.00,,,0.01,meteohub,2013-03-24 13:57:00,
2013-03-24 09:07:00,42.4,32.2,30.02,West,269,15.0,20.0,67,0.00,,,0.01,meteohub,2013-03-24 14:07:00,
2013-03-24 09:17:00,42.8,31.5,30.03,NW,315,8.0,19.0,64,0.00,,,0.01,meteohub,2013-03-24 14:17:00,
2013-03-24 09:22:00,42.4,31.8,30.03,WNW,300,7.0,19.0,66,0.00,,,0.01,meteohub,2013-03-24 14:22:00,
2013-03-24 09:27:00,42.1,31.5,30.03,WSW,258,6.0,18.0,66,0.00,,,0.01,meteohub,2013-03-24 14:27:00,
2013-03-24 09:37:00,41.9,31.5,30.04,WNW,295,8.0,14.0,66,0.00,,,0.01,meteohub,2013-03-24 14:37:00,
2013-03-24 09:42:00,41.9,31.5,30.04,WNW,288,8.0,16.0,66,0.00,,,0.01,meteohub,2013-03-24 14:42:00,
2013-03-24 09:52:00,42.1,31.5,30.04,NW,313,6.0,17.0,66,0.00,,,0.01,meteohub,2013-03-24 14:52:00,
2013-03-24 09:57:00,42.1,31.5,30.05,NW,322,6.0,18.0,66,0.00,,,0.01,meteohub,2013-03-24 14:57:00,
2013-03-24 10:02:00,42.3,32.5,30.05,NW,317,11.0,18.0,68,0.00,,,0.01,meteohub,2013-03-24 15:02:00,
2013-03-24 10:07:00,42.4,31.5,30.05,NW,319,7.0,15.0,65,0.00,,,0.01,meteohub,2013-03-24 15:07:00,
2013-03-24 10:12:00,42.4,31.5,30.06,NNW,340,7.0,14.0,65,0.00,,,0.01,meteohub,2013-03-24 15:12:00,
2013-03-24 10:17:00,42.4,32.2,30.06,WNW,300,9.0,14.0,67,0.00,,,0.01,meteohub,2013-03-24 15:17:00,
2013-03-24 10:27:00,43.0,32.7,30.06,NW,321,6.0,17.0,67,0.00,,,0.01,meteohub,2013-03-24 15:27:00,
2013-03-24 10:32:00,43.2,33.3,30.06,WNW,287,7.0,17.0,68,0.00,,,0.01,meteohub,2013-03-24 15:32:00,
2013-03-24 10:37:00,44.1,33.8,30.06,WNW,287,8.0,21.0,67,0.00,,,0.01,meteohub,2013-03-24 15:37:00,
2013-03-24 10:47:00,45.3,32.7,30.06,North,0,5.0,21.0,61,0.00,,,0.01,meteohub,2013-03-24 15:47:00,
2013-03-24 10:52:00,45.5,32.9,30.07,NW,309,8.0,15.0,61,0.00,,,0.01,meteohub,2013-03-24 15:52:00,
2013-03-24 10:57:00,45.0,31.1,30.08,NW,307,6.0,19.0,58,0.00,,,0.01,meteohub,2013-03-24 15:57:00,
2013-03-24 11:02:00,45.0,32.4,30.07,WNW,299,7.0,19.0,61,0.00,,,0.01,meteohub,2013-03-24 16:02:00,
2013-03-24 11:12:00,46.6,33.8,30.08,NW,305,3.0,16.0,61,0.00,,,0.01,meteohub,2013-03-24 16:12:00,
2013-03-24 11:17:00,46.4,32.9,30.08,WNW,288,9.0,16.0,59,0.00,,,0.01,meteohub,2013-03-24 16:17:00,
2013-03-24 11:22:00,45.9,32.7,30.08,NW,318,11.0,17.0,60,0.00,,,0.01,meteohub,2013-03-24 16:22:00,
2013-03-24 11:27:00,46.0,33.3,30.08,NW,304,7.0,17.0,61,0.00,,,0.01,meteohub,2013-03-24 16:27:00,
2013-03-24 11:35:00,46.2,33.1,30.08,WNW,295,5.0,17.0,60,0.00,,,0.01,meteohub,2013-03-24 16:35:00,
2013-03-24 11:42:00,47.1,33.1,30.08,WNW,291,15.0,23.0,58,0.00,,,0.01,meteohub,2013-03-24 16:42:00,
2013-03-24 11:47:00,46.2,33.1,30.08,WNW,302,4.0,23.0,60,0.00,,,0.01,meteohub,2013-03-24 16:47:00,
2013-03-24 11:57:00,45.9,33.3,30.08,WNW,293,13.0,17.0,61,0.00,,,0.01,meteohub,2013-03-24 16:57:00,
2013-03-24 12:02:00,45.7,32.5,30.08,WNW,289,8.0,17.0,60,0.00,,,0.01,meteohub,2013-03-24 17:02:00,
2013-03-24 12:07:00,45.7,32.5,30.08,WNW,285,6.0,16.0,60,0.00,,,0.01,meteohub,2013-03-24 17:07:00,
2013-03-24 12:17:00,46.9,32.9,30.08,NNW,344,5.0,18.0,58,0.00,,,0.01,meteohub,2013-03-24 17:17:00,
2013-03-24 12:22:00,47.1,35.2,30.09,NW,304,5.0,18.0,63,0.00,,,0.01,meteohub,2013-03-24 17:22:00,
2013-03-24 12:27:00,47.5,33.8,30.08,NW,317,8.0,14.0,59,0.00,,,0.01,meteohub,2013-03-24 17:27:00,
2013-03-24 12:37:00,47.5,33.8,30.09,WNW,285,5.0,13.0,59,0.00,,,0.01,meteohub,2013-03-24 17:37:00,
2013-03-24 12:42:00,47.1,33.1,30.08,WNW,286,6.0,16.0,58,0.00,,,0.01,meteohub,2013-03-24 17:42:00,
2013-03-24 12:47:00,47.7,34.9,30.08,WNW,302,12.0,16.0,61,0.00,,,0.01,meteohub,2013-03-24 17:47:00,
2013-03-24 12:57:00,48.2,34.2,30.08,NW,308,7.0,15.0,58,0.00,,,0.01,meteohub,2013-03-24 17:57:00,
2013-03-24 13:02:00,48.4,33.4,30.08,WSW,244,9.0,15.0,56,0.00,,,0.01,meteohub,2013-03-24 18:02:00,
2013-03-24 13:07:00,48.7,34.2,30.08,WNW,285,7.0,15.0,57,0.00,,,0.01,meteohub,2013-03-24 18:07:00,
2013-03-24 13:12:00,49.1,34.2,30.08,North,355,1.0,16.0,56,0.00,,,0.01,meteohub,2013-03-24 18:12:00,
2013-03-24 13:22:00,49.6,33.3,30.08,NNE,16,5.0,16.0,53,0.00,,,0.01,meteohub,2013-03-24 18:22:00,
2013-03-24 13:27:00,50.0,34.5,30.08,West,267,3.0,14.0,55,0.00,,,0.01,meteohub,2013-03-24 18:27:00,
2013-03-24 13:37:00,50.7,33.3,30.07,NW,309,6.0,20.0,51,0.00,,,0.01,meteohub,2013-03-24 18:37:00,
2013-03-24 13:43:00,51.1,33.6,30.07,NNW,341,7.0,15.0,51,0.00,,,0.01,meteohub,2013-03-24 18:43:00,
2013-03-24 13:52:00,50.5,33.1,30.07,WNW,292,5.0,17.0,51,0.00,,,0.01,meteohub,2013-03-24 18:52:00,
2013-03-24 14:02:00,50.7,34.2,30.07,NW,306,3.0,17.0,53,0.00,,,0.01,meteohub,2013-03-24 19:02:00,
2013-03-24 14:08:00,51.3,35.2,30.06,North,0,5.0,15.0,54,0.00,,,0.01,meteohub,2013-03-24 19:08:00,
2013-03-24 14:17:00,52.0,34.3,30.07,WNW,291,5.0,16.0,51,0.00,,,0.01,meteohub,2013-03-24 19:17:00,
2013-03-24 14:27:00,51.4,33.4,30.06,NW,307,7.0,16.0,50,0.00,,,0.01,meteohub,2013-03-24 19:27:00,
2013-03-24 14:37:00,52.0,32.9,30.06,NW,313,7.0,17.0,48,0.00,,,0.01,meteohub,2013-03-24 19:37:00,
2013-03-24 14:42:00,52.5,32.9,30.05,WNW,295,6.0,17.0,47,0.00,,,0.01,meteohub,2013-03-24 19:42:00,
2013-03-24 14:47:00,52.9,33.3,30.05,WNW,298,7.0,20.0,47,0.00,,,0.01,meteohub,2013-03-24 19:47:00,
2013-03-24 14:57:00,53.2,33.4,30.05,NNW,331,3.0,20.0,47,0.00,,,0.01,meteohub,2013-03-24 19:57:00,
2013-03-24 15:07:00,52.9,32.7,30.05,North,0,4.0,19.0,46,0.00,,,0.01,meteohub,2013-03-24 20:07:00,
2013-03-24 15:17:00,53.1,32.4,30.05,West,262,7.0,19.0,45,0.00,,,0.01,meteohub,2013-03-24 20:17:00,
2013-03-24 15:22:00,53.1,32.4,30.04,NW,325,6.0,19.0,45,0.00,,,0.01,meteohub,2013-03-24 20:22:00,
2013-03-24 15:32:00,53.1,32.4,30.04,NNW,340,6.0,14.0,45,0.00,,,0.01,meteohub,2013-03-24 20:32:00,
2013-03-24 15:42:00,53.4,32.5,30.04,WSW,237,3.0,15.0,45,0.00,,,0.01,meteohub,2013-03-24 20:42:00,
2013-03-24 15:47:00,54.1,32.7,30.05,WNW,288,5.0,15.0,44,0.00,,,0.01,meteohub,2013-03-24 20:47:00,
2013-03-24 15:57:00,53.4,31.5,30.05,North,9,5.0,16.0,43,0.00,,,0.01,meteohub,2013-03-24 20:57:00,
2013-03-24 16:07:00,52.5,31.3,30.05,NNW,348,8.0,12.0,44,0.00,,,0.01,meteohub,2013-03-24 21:07:00,
2013-03-24 16:12:00,52.2,31.5,30.05,WNW,286,7.0,12.0,45,0.00,,,0.01,meteohub,2013-03-24 21:12:00,
2013-03-24 16:17:00,53.1,32.4,30.04,NW,306,4.0,12.0,45,0.00,,,0.01,meteohub,2013-03-24 21:17:00,
2013-03-24 16:22:00,53.2,31.3,30.04,WNW,290,11.0,13.0,43,0.00,,,0.01,meteohub,2013-03-24 21:22:00,
2013-03-24 16:27:00,53.4,30.9,30.04,West,281,7.0,13.0,42,0.00,,,0.01,meteohub,2013-03-24 21:27:00,
2013-03-24 16:37:00,54.3,30.6,30.04,West,273,9.0,17.0,40,0.00,,,0.01,meteohub,2013-03-24 21:37:00,
2013-03-24 16:42:00,54.1,30.9,30.04,NW,309,5.0,17.0,41,0.00,,,0.01,meteohub,2013-03-24 21:42:00,
2013-03-24 16:47:00,54.1,31.5,30.04,NW,313,5.0,16.0,42,0.00,,,0.01,meteohub,2013-03-24 21:47:00,
2013-03-24 16:52:00,53.6,30.4,30.04,WNW,284,6.0,16.0,41,0.00,,,0.01,meteohub,2013-03-24 21:52:00,
2013-03-24 16:57:00,53.8,30.6,30.04,West,281,12.0,16.0,41,0.00,,,0.01,meteohub,2013-03-24 21:57:00,
2013-03-24 17:02:00,53.4,30.4,30.04,NW,306,3.0,17.0,41,0.00,,,0.01,meteohub,2013-03-24 22:02:00,
2013-03-24 17:12:00,53.1,31.1,30.03,NNW,332,8.0,13.0,43,0.00,,,0.01,meteohub,2013-03-24 22:12:00,
2013-03-24 17:17:00,52.3,31.1,30.04,NW,304,8.0,14.0,44,0.00,,,0.01,meteohub,2013-03-24 22:17:00,
2013-03-24 17:27:00,51.8,30.0,30.04,WNW,297,5.0,14.0,43,0.00,,,0.01,meteohub,2013-03-24 22:27:00,
2013-03-24 17:37:00,51.6,30.9,30.04,SW,228,3.0,12.0,45,0.00,,,0.01,meteohub,2013-03-24 22:37:00,
2013-03-24 17:42:00,51.4,30.2,30.04,NW,311,3.0,10.0,44,0.00,,,0.01,meteohub,2013-03-24 22:42:00,
2013-03-24 17:47:00,51.3,30.6,30.04,WNW,298,6.0,10.0,45,0.00,,,0.01,meteohub,2013-03-24 22:47:00,
2013-03-24 17:57:00,51.3,30.6,30.04,NE,46,4.0,14.0,45,0.00,,,0.01,meteohub,2013-03-24 22:57:00,
2013-03-24 18:02:00,51.3,30.6,30.04,WNW,290,4.0,14.0,45,0.00,,,0.01,meteohub,2013-03-24 23:02:00,
2013-03-24 18:12:00,51.4,30.7,30.04,North,351,2.0,10.0,45,0.00,,,0.01,meteohub,2013-03-24 23:12:00,
2013-03-24 18:17:00,50.9,29.8,30.05,WNW,301,8.0,10.0,44,0.00,,,0.01,meteohub,2013-03-24 23:17:00,
2013-03-24 18:27:00,50.5,30.0,30.05,NNE,28,6.0,10.0,45,0.00,,,0.01,meteohub,2013-03-24 23:27:00,
2013-03-24 18:37:00,49.8,30.4,30.05,North,355,4.0,12.0,47,0.00,,,0.01,meteohub,2013-03-24 23:37:00,
2013-03-24 18:47:00,49.5,29.5,30.06,WNW,298,3.0,12.0,46,0.00,,,0.01,meteohub,2013-03-24 23:47:00,
2013-03-24 18:57:00,48.9,30.0,30.06,NW,321,4.0,9.0,48,0.00,,,0.01,meteohub,2013-03-24 23:57:00,
2013-03-24 19:07:00,48.6,29.8,30.06,WNW,296,3.0,8.0,48,0.00,,,0.00,meteohub,2013-03-25 00:07:00,
2013-03-24 19:17:00,48.2,30.0,30.06,NW,321,2.0,9.0,49,0.00,,,0.00,meteohub,2013-03-25 00:17:00,
2013-03-24 19:22:00,47.8,30.0,30.06,NNW,342,2.0,9.0,50,0.00,,,0.00,meteohub,2013-03-25 00:22:00,
2013-03-24 19:32:00,47.5,28.8,30.07,North,355,7.0,8.0,48,0.00,,,0.00,meteohub,2013-03-25 00:32:00,
2013-03-24 19:37:00,47.3,28.6,30.07,NNW,334,3.0,8.0,48,0.00,,,0.00,meteohub,2013-03-25 00:37:00,
2013-03-24 19:42:00,47.1,28.9,30.07,NNE,21,1.0,8.0,49,0.00,,,0.00,meteohub,2013-03-25 00:42:00,
2013-03-24 19:52:00,46.6,28.9,30.08,NW,312,2.0,7.0,50,0.00,,,0.00,meteohub,2013-03-25 00:52:00,
2013-03-24 20:02:00,46.0,28.9,30.08,NW,306,2.0,6.0,51,0.00,,,0.00,meteohub,2013-03-25 01:02:00,
2013-03-24 20:07:00,45.9,29.3,30.09,NW,324,1.0,6.0,52,0.00,,,0.00,meteohub,2013-03-25 01:07:00,
2013-03-24 20:12:00,45.7,29.1,30.09,NW,304,3.0,6.0,52,0.00,,,0.00,meteohub,2013-03-25 01:12:00,
2013-03-24 20:17:00,45.3,29.1,30.09,North,355,2.0,6.0,53,0.00,,,0.00,meteohub,2013-03-25 01:17:00,
2013-03-24 20:27:00,45.0,29.3,30.09,NW,309,1.0,6.0,54,0.00,,,0.00,meteohub,2013-03-25 01:27:00,
2013-03-24 20:32:00,44.6,28.9,30.09,NW,309,1.0,3.0,54,0.00,,,0.00,meteohub,2013-03-25 01:32:00,
2013-03-24 20:37:00,44.2,29.1,30.09,NW,309,1.0,3.0,55,0.00,,,0.00,meteohub,2013-03-25 01:37:00,
2013-03-24 20:42:00,44.1,29.3,30.09,NW,309,1.0,3.0,56,0.00,,,0.00,meteohub,2013-03-25 01:42:00,
2013-03-24 20:47:00,43.9,29.1,30.09,NW,309,1.0,3.0,56,0.00,,,0.00,meteohub,2013-03-25 01:47:00,
2013-03-24 20:57:00,43.3,29.1,30.09,NW,308,1.0,3.0,57,0.00,,,0.00,meteohub,2013-03-25 01:57:00,
2013-03-24 21:07:00,43.0,29.3,30.10,NW,308,1.0,4.0,58,0.00,,,0.00,meteohub,2013-03-25 02:07:00,
2013-03-24 21:17:00,42.6,29.3,30.10,NW,308,1.0,3.0,59,0.00,,,0.00,meteohub,2013-03-25 02:17:00,
2013-03-24 21:27:00,42.3,29.8,30.11,NW,308,2.0,3.0,61,0.00,,,0.00,meteohub,2013-03-25 02:27:00,
2013-03-24 21:32:00,42.1,29.1,30.11,NW,308,1.0,3.0,60,0.00,,,0.00,meteohub,2013-03-25 02:32:00,
2013-03-24 21:42:00,41.7,29.7,30.12,NW,308,2.0,3.0,62,0.00,,,0.00,meteohub,2013-03-25 02:42:00,
2013-03-24 21:47:00,41.5,29.5,30.12,NW,304,2.0,4.0,62,0.00,,,0.00,meteohub,2013-03-25 02:47:00,
2013-03-24 21:57:00,41.5,29.5,30.12,NW,313,2.0,4.0,62,0.00,,,0.00,meteohub,2013-03-25 02:57:00,
2013-03-24 22:02:00,41.5,29.5,30.12,NW,306,4.0,4.0,62,0.00,,,0.00,meteohub,2013-03-25 03:02:00,
2013-03-24 22:07:00,41.4,29.7,30.12,WNW,298,2.0,4.0,63,0.00,,,0.00,meteohub,2013-03-25 03:07:00,
2013-03-24 22:17:00,41.2,29.5,30.13,NW,320,1.0,4.0,63,0.00,,,0.00,meteohub,2013-03-25 03:17:00,
2013-03-24 22:22:00,41.2,29.5,30.13,NW,317,1.0,4.0,63,0.00,,,0.00,meteohub,2013-03-25 03:22:00,
2013-03-24 22:27:00,40.8,29.7,30.13,NW,317,1.0,4.0,64,0.00,,,0.00,meteohub,2013-03-25 03:27:00,
2013-03-24 22:32:00,40.8,29.7,30.13,WNW,296,1.0,4.0,64,0.00,,,0.00,meteohub,2013-03-25 03:32:00,
2013-03-24 22:37:00,40.6,29.5,30.14,NW,313,2.0,5.0,64,0.00,,,0.00,meteohub,2013-03-25 03:37:00,
2013-03-24 22:42:00,40.6,29.5,30.14,WNW,298,3.0,5.0,64,0.00,,,0.00,meteohub,2013-03-25 03:42:00,
2013-03-24 22:47:00,40.6,29.1,30.14,NNW,335,2.0,5.0,63,0.00,,,0.00,meteohub,2013-03-25 03:47:00,
2013-03-24 22:52:00,40.6,28.6,30.14,NW,324,1.0,5.0,62,0.00,,,0.00,meteohub,2013-03-25 03:52:00,
2013-03-24 22:57:00,40.6,28.6,30.14,NW,324,1.0,4.0,62,0.00,,,0.00,meteohub,2013-03-25 03:57:00,
2013-03-24 23:02:00,40.6,28.6,30.14,NW,324,1.0,4.0,62,0.00,,,0.00,meteohub,2013-03-25 04:02:00,
2013-03-24 23:07:00,40.5,28.4,30.15,NW,324,1.0,3.0,62,0.00,,,0.00,meteohub,2013-03-25 04:07:00,
2013-03-24 23:12:00,40.3,28.2,30.15,WNW,292,1.0,3.0,62,0.00,,,0.00,meteohub,2013-03-25 04:12:00,
2013-03-24 23:22:00,39.9,28.0,30.15,NW,304,3.0,3.0,62,0.00,,,0.00,meteohub,2013-03-25 04:22:00,
2013-03-24 23:27:00,39.9,28.0,30.15,NW,304,2.0,3.0,62,0.00,,,0.00,meteohub,2013-03-25 04:27:00,
2013-03-24 23:37:00,39.7,27.9,30.16,NW,304,3.0,3.0,62,0.00,,,0.00,meteohub,2013-03-25 04:37:00,
2013-03-24 23:42:00,39.6,27.7,30.16,NW,304,1.0,3.0,62,0.00,,,0.00,meteohub,2013-03-25 04:42:00,
2013-03-24 23:47:00,39.6,27.1,30.16,NW,304,1.0,3.0,61,0.00,,,0.00,meteohub,2013-03-25 04:47:00,
2013-03-24 23:52:00,39.4,27.1,30.16,NW,305,2.0,3.0,61,0.00,,,0.00,meteohub,2013-03-25 04:52:00,
2013-03-24 23:57:00,39.6,26.8,30.16,NW,305,1.0,4.0,60,0.00,,,0.00,meteohub,2013-03-25 04:57:00,